• In Hungary
  • List of Countries
  • For 7 days
  • Water Temperature
  • Satellite Maps
  • Weather Map
  • News
  • Weather Widgets
  • user-avatar
    Login

    Hourly Weather Caceres

    Today, 19 September, Wednesday

    Time Temperature Precipitation Wind Pressure Humidity
    00:00 +24°C° 0 mm 1 mps 729 mmHg 48%
    01:00 +24°C° 0 mm 1 mps 729 mmHg 49%
    02:00 +23°C° 0 mm 1 mps 729 mmHg 51%
    03:00 +23°C° 0 mm 1 mps 729 mmHg 52%
    04:00 +22°C° 0 mm 1 mps 729 mmHg 53%
    05:00 +22°C° 0 mm 1 mps 729 mmHg 54%
    06:00 +19°C° 0 mm 0 mps 729 mmHg 57%
    07:00 +21°C° 0 mm 0 mps 730 mmHg 51%
    08:00 +26°C° 0 mm 1 mps 730 mmHg 45%
    09:00 +28°C° 0 mm 1 mps 730 mmHg 39%
    10:00 +30°C° 0 mm 1 mps 730 mmHg 34%
    11:00 +32°C° 0 mm 1 mps 730 mmHg 30%
    12:00 +34°C° 0 mm 1 mps 730 mmHg 25%
    13:00 +34°C° 0 mm 1 mps 730 mmHg 24%
    14:00 +34°C° 0 mm 1 mps 730 mmHg 23%
    15:00 +34°C° 0 mm 1 mps 729 mmHg 22%
    16:00 +33°C° 0 mm 1 mps 729 mmHg 23%
    17:00 +32°C° 0 mm 1 mps 729 mmHg 25%
    18:00 +31°C° 0 mm 1 mps 729 mmHg 26%
    19:00 +30°C° 0 mm 1 mps 729 mmHg 27%
    20:00 +29°C° 0 mm 1 mps 729 mmHg 29%
    21:00 +28°C° 0 mm 1 mps 730 mmHg 30%
    22:00 +27°C° 0 mm 1 mps 730 mmHg 31%
    23:00 +26°C° 0 mm 1 mps 729 mmHg 32%

    Tomorrow, 20 September, Thursday

    Time Temperature Precipitation Wind Pressure Humidity
    00:00 +26°C° 0 mm 1 mps 729 mmHg 33%
    01:00 +25°C° 0 mm 1 mps 729 mmHg 34%
    02:00 +25°C° 0 mm 1 mps 729 mmHg 35%
    03:00 +24°C° 0 mm 1 mps 729 mmHg 36%
    04:00 +24°C° 0 mm 1 mps 729 mmHg 37%
    05:00 +23°C° 0 mm 1 mps 729 mmHg 38%
    06:00 +23°C° 0 mm 1 mps 729 mmHg 39%
    07:00 +25°C° 0 mm 1 mps 729 mmHg 35%
    08:00 +27°C° 0 mm 1 mps 730 mmHg 32%
    09:00 +30°C° 0 mm 1 mps 730 mmHg 28%
    10:00 +32°C° 0 mm 1 mps 730 mmHg 26%
    11:00 +33°C° 0 mm 1 mps 730 mmHg 24%
    12:00 +35°C° 0 mm 1 mps 730 mmHg 22%
    13:00 +35°C° 0 mm 1 mps 729 mmHg 22%
    14:00 +35°C° 0 mm 1 mps 729 mmHg 22%
    15:00 +36°C° 0 mm 2 mps 728 mmHg 22%
    16:00 +34°C° 0 mm 1 mps 728 mmHg 24%
    17:00 +33°C° 0 mm 1 mps 728 mmHg 25%
    18:00 +32°C° 0 mm 1 mps 728 mmHg 27%
    19:00 +31°C° 0 mm 1 mps 728 mmHg 29%
    20:00 +29°C° 0 mm 1 mps 728 mmHg 31%
    21:00 +28°C° 0 mm 1 mps 729 mmHg 33%
    22:00 +27°C° 0 mm 2 mps 729 mmHg 34%
    23:00 +26°C° 0 mm 2 mps 729 mmHg 35%

    Day after tomorrow, 21 September, Friday

    Time Temperature Precipitation Wind Pressure Humidity
    00:00 +25°C° 0 mm 2 mps 729 mmHg 36%
    01:00 +25°C° 0 mm 2 mps 729 mmHg 37%
    02:00 +24°C° 0 mm 1 mps 728 mmHg 38%
    03:00 +23°C° 0 mm 1 mps 728 mmHg 39%
    04:00 +23°C° 0 mm 1 mps 728 mmHg 40%
    05:00 +23°C° 0 mm 1 mps 728 mmHg 40%
    06:00 +22°C° 0 mm 1 mps 729 mmHg 41%
    07:00 +24°C° 0 mm 1 mps 729 mmHg 37%
    08:00 +26°C° 0 mm 1 mps 730 mmHg 33%
    09:00 +29°C° 0 mm 1 mps 730 mmHg 28%
    10:00 +31°C° 0 mm 1 mps 730 mmHg 26%
    11:00 +33°C° 0 mm 1 mps 730 mmHg 23%
    12:00 +35°C° 0 mm 1 mps 730 mmHg 21%
    13:00 +35°C° 0 mm 1 mps 730 mmHg 20%
    14:00 +36°C° 0 mm 2 mps 729 mmHg 19%
    15:00 +36°C° 0 mm 2 mps 729 mmHg 19%
    16:00 +35°C° 0 mm 2 mps 729 mmHg 20%
    17:00 +33°C° 0 mm 1 mps 729 mmHg 21%
    18:00 +32°C° 0 mm 1 mps 729 mmHg 22%
    19:00 +30°C° 0 mm 1 mps 729 mmHg 24%
    20:00 +29°C° 0 mm 1 mps 729 mmHg 25%
    21:00 +27°C° 0 mm 2 mps 730 mmHg 27%
    22:00 +27°C° 0 mm 2 mps 730 mmHg 28%
    23:00 +26°C° 0 mm 2 mps 730 mmHg 28%

    22 September, Saturday

    Time Temperature Precipitation Wind Pressure Humidity
    00:00 +25°C° 0 mm 2 mps 730 mmHg 29%
    01:00 +25°C° 0 mm 1 mps 730 mmHg 30%
    02:00 +24°C° 0 mm 1 mps 730 mmHg 31%
    03:00 +24°C° 0 mm 1 mps 730 mmHg 31%
    04:00 +23°C° 0 mm 1 mps 730 mmHg 32%
    05:00 +23°C° 0 mm 1 mps 730 mmHg 33%
    06:00 +23°C° 0 mm 1 mps 730 mmHg 33%
    07:00 +25°C° 0 mm 1 mps 731 mmHg 30%
    08:00 +27°C° 0 mm 1 mps 731 mmHg 27%
    09:00 +30°C° 0 mm 1 mps 731 mmHg 24%
    10:00 +32°C° 0 mm 1 mps 731 mmHg 22%
    11:00 +34°C° 0 mm 1 mps 731 mmHg 20%
    12:00 +36°C° 0 mm 1 mps 731 mmHg 18%
    13:00 +36°C° 0 mm 1 mps 731 mmHg 18%
    14:00 +36°C° 0 mm 1 mps 730 mmHg 18%
    15:00 +38°C° 0 mm 2 mps 730 mmHg 18%
    16:00 +35°C° 0 mm 1 mps 730 mmHg 19%
    17:00 +34°C° 0 mm 1 mps 730 mmHg 21%
    18:00 +33°C° 0 mm 1 mps 730 mmHg 22%
    19:00 +31°C° 0 mm 1 mps 730 mmHg 24%
    20:00 +30°C° 0 mm 1 mps 730 mmHg 25%
    21:00 +29°C° 0 mm 1 mps 731 mmHg 27%
    22:00 +28°C° 0 mm 1 mps 731 mmHg 28%
    23:00 +27°C° 0 mm 1 mps 730 mmHg 29%

    23 September, Sunday

    Time Temperature Precipitation Wind Pressure Humidity
    00:00 +26°C° 0 mm 1 mps 730 mmHg 31%
    01:00 +26°C° 0 mm 1 mps 730 mmHg 32%
    02:00 +25°C° 0 mm 1 mps 730 mmHg 33%
    03:00 +24°C° 0 mm 1 mps 730 mmHg 34%
    04:00 +24°C° 0 mm 1 mps 730 mmHg 36%
    05:00 +23°C° 0 mm 1 mps 730 mmHg 37%
    06:00 +23°C° 0 mm 1 mps 730 mmHg 38%
    07:00 +25°C° 0 mm 1 mps 730 mmHg 36%
    08:00 +27°C° 0 mm 1 mps 730 mmHg 33%
    09:00 +29°C° 0 mm 1 mps 731 mmHg 30%
    10:00 +31°C° 0 mm 2 mps 730 mmHg 27%
    11:00 +32°C° 0 mm 2 mps 730 mmHg 23%
    12:00 +35°C° 0 mm 3 mps 730 mmHg 20%
    13:00 +35°C° 0 mm 3 mps 730 mmHg 21%
    14:00 +36°C° 0 mm 4 mps 729 mmHg 21%
    15:00 +36°C° 0 mm 4 mps 729 mmHg 21%
    16:00 +35°C° 0 mm 4 mps 729 mmHg 26%
    17:00 +34°C° 0 mm 4 mps 728 mmHg 31%
    18:00 +33°C° 0 mm 4 mps 728 mmHg 36%
    19:00 +30°C° 0 mm 4 mps 729 mmHg 40%
    20:00 +28°C° 0 mm 4 mps 729 mmHg 45%
    21:00 +26°C° 0 mm 5 mps 730 mmHg 49%
    22:00 +25°C° 0 mm 4 mps 730 mmHg 47%
    23:00 +23°C° 0 mm 4 mps 730 mmHg 46%

    24 September, Monday

    Time Temperature Precipitation Wind Pressure Humidity
    00:00 +22°C° 0 mm 4 mps 730 mmHg 44%
    01:00 +21°C° 0 mm 4 mps 730 mmHg 45%
    02:00 +21°C° 0 mm 4 mps 730 mmHg 47%
    03:00 +20°C° 0 mm 4 mps 730 mmHg 49%
    04:00 +20°C° 0 mm 4 mps 730 mmHg 48%
    05:00 +20°C° 0 mm 4 mps 730 mmHg 47%
    06:00 +19°C° 0 mm 4 mps 731 mmHg 46%
    07:00 +20°C° 0 mm 5 mps 731 mmHg 42%
    08:00 +21°C° 0 mm 5 mps 732 mmHg 37%
    09:00 +22°C° 0 mm 6 mps 732 mmHg 32%
    10:00 +24°C° 0 mm 6 mps 732 mmHg 29%
    11:00 +26°C° 0 mm 6 mps 732 mmHg 26%
    12:00 +28°C° 0 mm 5 mps 732 mmHg 22%
    13:00 +29°C° 0 mm 5 mps 731 mmHg 21%
    14:00 +29°C° 0 mm 5 mps 731 mmHg 20%
    15:00 +30°C° 0 mm 5 mps 730 mmHg 18%
    16:00 +29°C° 0 mm 4 mps 730 mmHg 19%
    17:00 +28°C° 0 mm 4 mps 730 mmHg 20%
    18:00 +27°C° 0 mm 3 mps 730 mmHg 21%
    19:00 +25°C° 0 mm 4 mps 731 mmHg 23%
    20:00 +23°C° 0 mm 4 mps 731 mmHg 26%
    21:00 +21°C° 0 mm 4 mps 732 mmHg 28%
    22:00 +20°C° 0 mm 4 mps 732 mmHg 30%
    23:00 +20°C° 0 mm 5 mps 732 mmHg 33%
    Show more